2016 KB1

Initial reported observation by Pan-STARRS 1, Haleakala on 2016-05-30.
(Discoverer will be defined when the object is numbered. See this note on how discoverers are determined.)

Orbit

Orbit type: Apollo
Near-Earth Object
One opposition object seen prior.

Note: WebGL enabled browser required.

epoch2023-02-25.0
epoch JD2460000.5
perihelion date2020-05-28.51845
perihelion JD2458998.01845
argument of perihelion (°)15.09121
ascending node (°)323.92284
inclination (°)8.41090
eccentricity0.6376598
perihelion distance (AU)0.8847060
Tisserand w.r.t. Jupiter3.2
ΔV w.r.t. Earth (km/sec)7.2
semimajor axis (AU)2.4416445
mean anomaly (°)258.97425
mean daily motion (°/day)0.25833320
aphelion distance (AU)3.999
period (years)3.82
P-vector [x]0.93201926
P-vector [y]-0.34581105
P-vector [z]-0.10841967
Q-vector [x]0.35202388
Q-vector [y]0.79274666
Q-vector [z]0.49762628
absolute magnitude19.03
phase slope0.15
uncertainty4
referenceMPO 740716
observations used69
oppositions1
arc length (days)203
first opposition used2016
last opposition used2016
residual rms (arc-secs)0.57
perturbers coarse indicatorM-v
perturbers precise indicator003Ek
first observation date used2016-05-21.0
last observation date used2016-12-10.0
computer nameBell
JD of orbit computation2457733.061221
perihelion JD uncertainty (days)6.7778E-06
argument of perihelion uncertainty (°)1.1565E-05
ascending node uncertainty (°)1.5809E-05
inclination uncertainty (°)3.9272E-06
eccentricity uncertainty 5.4634E-07
perihelion distance uncertainty (AU)5.8266E-08
Minimum Orbit Intersection Distances (in AU)
for orbit epoch: 2460000.5, reference: E2023-D73
Mercury0.49391
Venus0.17114
Earth0.07434
Mars0.19018
Jupiter1.42366
Saturn5.36032
Uranus14.4553
Neptune26.5823

Observations

71 total observations over interval: 2016 05 21.59744 – 2016 12 10.44205
These data are available for download (format description).

Date (UT) J2000 RA J2000 Dec Magn Location Ref
2016 05 21.59744 19 49 32.02 -43 58 09.4 19.7 R F51 – Pan-STARRS 1, Haleakala MPS 712581
2016 05 21.60546 19 49 34.20 -43 58 13.1 19.5 R F51 – Pan-STARRS 1, Haleakala MPS 712581
2016 05 30.56918 20 39 54.703 -44 40 14.10 18.8 i F51 – Pan-STARRS 1, Haleakala MPS 712581
2016 05 30.57847 20 39 58.257 -44 40 14.21 18.7 i F51 – Pan-STARRS 1, Haleakala MPS 712581
2016 05 30.58763 20 40 01.758 -44 40 14.30 18.8 i F51 – Pan-STARRS 1, Haleakala MPS 712581
2016 05 31.603010 20 46 49.766 -44 39 25.08 18.3 R 568 – Maunakea MPS 712581
2016 05 31.604046 20 46 50.165 -44 39 25.01 18.2 R 568 – Maunakea MPS 712581
2016 05 31.605084 20 46 50.565 -44 39 24.89 18.3 R 568 – Maunakea MPS 712581
2016 06 01.69479 20 54 25.83 -44 36 16.7 18.5 R 474 – Mount John Observatory, Lake Tekapo MPS 712581
2016 06 01.69681 20 54 26.68 -44 36 16.4 18.4 R 474 – Mount John Observatory, Lake Tekapo MPS 712581
2016 06 01.69882 20 54 27.52 -44 36 16.0 18.4 R 474 – Mount John Observatory, Lake Tekapo MPS 712581
2016 06 01.70083 20 54 28.37 -44 36 15.6 18.6 R 474 – Mount John Observatory, Lake Tekapo MPS 712581
2016 06 03.26631 21 05 55.68 -44 28 24.3 18.9 R W98 – Polonia Observatory, San Pedro de Atacama MPS 714071
2016 06 03.28099 21 06 02.15 -44 28 19.6 18.8 R W98 – Polonia Observatory, San Pedro de Atacama MPS 714071
2016 06 03.29563 21 06 08.57 -44 28 13.8 18.7 R W98 – Polonia Observatory, San Pedro de Atacama MPS 714071
2016 06 06.31620 21 30 04.54 -43 56 33.6 18.7 V 807 – Cerro Tololo Observatory, La Serena MPS 714071
2016 06 06.32044 21 30 06.60 -43 56 30.3 18.8 V 807 – Cerro Tololo Observatory, La Serena MPS 714071
2016 06 06.32297 21 30 07.84 -43 56 28.4 19.9 V 807 – Cerro Tololo Observatory, La Serena MPS 714071
2016 06 06.32485 21 30 08.75 -43 56 26.5 19.0 V 807 – Cerro Tololo Observatory, La Serena MPS 714071
2016 06 06.32649 21 30 09.54 -43 56 24.9 18.1 V 807 – Cerro Tololo Observatory, La Serena MPS 714071
2016 06 08.31959 21 47 18.41 -43 20 55.4 18.7 V 807 – Cerro Tololo Observatory, La Serena MPS 714071
2016 06 08.32193 21 47 19.62 -43 20 52.5 18.5 V 807 – Cerro Tololo Observatory, La Serena MPS 714071
2016 06 08.32440 21 47 20.91 -43 20 49.7 18.5 V 807 – Cerro Tololo Observatory, La Serena MPS 714071
2016 06 08.32664 21 47 22.07 -43 20 47.0 18.7 V 807 – Cerro Tololo Observatory, La Serena MPS 714071
2016 06 08.32910 21 47 23.35 -43 20 43.9 18.5 V 807 – Cerro Tololo Observatory, La Serena MPS 714071
2016 06 11.35794 22 15 24.38 -41 58 24.5 18.3 V W88 – Slooh.com Chile Observatory, La Dehesa MPS 714071
2016 06 11.36847 22 15 30.32 -41 58 03.4 18.2 V W88 – Slooh.com Chile Observatory, La Dehesa MPS 714071
2016 06 11.37875 22 15 36.12 -41 57 42.9 18.4 V W88 – Slooh.com Chile Observatory, La Dehesa MPS 714071
2016 06 11.42334 22 16 01.23 -41 56 12.6   W88 – Slooh.com Chile Observatory, La Dehesa MPS 714071
2016 06 16.18381 23 04 01.87 -38 17 10.3 18.4 R Y00 – SONEAR Observatory, Oliveira MPS 714071
2016 06 16.19320 23 04 07.68 -38 16 38.5 18.4 R Y00 – SONEAR Observatory, Oliveira MPS 714071
2016 06 16.20255 23 04 13.43 -38 16 06.5 18.3 R Y00 – SONEAR Observatory, Oliveira MPS 714071
2016 06 17.45694 23 17 21.08 -36 57 39.6 18.8 R 926 – Tenagra II Observatory, Nogales MPS 716657
2016 06 17.45986 23 17 22.86 -36 57 28.6 18.8 R 926 – Tenagra II Observatory, Nogales MPS 716657
2016 06 17.46277 23 17 24.71 -36 57 17.2 18.5 R 926 – Tenagra II Observatory, Nogales MPS 716657
2016 06 18.36499 23 26 55.22 -35 54 08.5 18.1 V W88 – Slooh.com Chile Observatory, La Dehesa MPS 716657
2016 06 18.38559 23 27 07.98 -35 52 40.0 18.0 V W88 – Slooh.com Chile Observatory, La Dehesa MPS 716657
2016 06 18.39603 23 27 14.45 -35 51 55.1 18.0 V W88 – Slooh.com Chile Observatory, La Dehesa MPS 716657
2016 06 18.40645 23 27 20.87 -35 51 09.9 18.1 V W88 – Slooh.com Chile Observatory, La Dehesa MPS 716657
2016 06 30.69815 01 29 04.75 -14 51 30.4 18.5 R 474 – Mount John Observatory, Lake Tekapo MPS 716998
2016 06 30.69887 01 29 05.11 -14 51 25.7 18.4 R 474 – Mount John Observatory, Lake Tekapo MPS 716998
2016 06 30.69959 01 29 05.48 -14 51 20.2 18.5 R 474 – Mount John Observatory, Lake Tekapo MPS 716998
2016 06 30.70031 01 29 05.81 -14 51 15.3 18.7 R 474 – Mount John Observatory, Lake Tekapo MPS 716998
2016 07 07.41287 02 21 28.07 -02 04 52.1 19.3 V 807 – Cerro Tololo Observatory, La Serena MPS 717490
2016 07 07.41492 02 21 28.90 -02 04 39.1 19.3 V 807 – Cerro Tololo Observatory, La Serena MPS 717490
2016 07 07.41689 02 21 29.71 -02 04 26.5 19.3 V 807 – Cerro Tololo Observatory, La Serena MPS 717490
2016 07 08.623076 02 29 45.196 -00 00 07.82 18.8 R 568 – Maunakea MPS 719692
2016 07 08.623522 02 29 45.372 -00 00 05.06 19.0 R 568 – Maunakea MPS 719692
2016 07 08.623935 02 29 45.533 -00 00 02.63 18.7 R 568 – Maunakea MPS 719692
2016 09 27.643738 07 12 19.845 +34 52 02.66 20.6 G T12 – University of Hawaii 88-inch telescope, Maunak MPS 736261
2016 09 27.644734 07 12 19.948 +34 52 02.81 20.5 G T12 – University of Hawaii 88-inch telescope, Maunak MPS 736261
2016 09 30.638391 07 17 22.970 +34 56 41.27 20.6 G T12 – University of Hawaii 88-inch telescope, Maunak MPS 736261
2016 09 30.639582 07 17 23.076 +34 56 41.36 20.6 G T12 – University of Hawaii 88-inch telescope, Maunak MPS 736261
2016 09 30.640694 07 17 23.179 +34 56 41.54 20.5 G T12 – University of Hawaii 88-inch telescope, Maunak MPS 736261
2016 10 18.48851 07 37 45.54 +35 29 35.4 20.3 R 926 – Tenagra II Observatory, Nogales MPS 736261
2016 10 18.50240 07 37 45.99 +35 29 38.7 20.6 R 926 – Tenagra II Observatory, Nogales MPS 736261
2016 10 18.51633 07 37 46.47 +35 29 40.9 20.7 R 926 – Tenagra II Observatory, Nogales MPS 736261
2016 10 19.47762 07 38 21.95 +35 32 05.3 20.7 R 926 – Tenagra II Observatory, Nogales MPS 736261
2016 10 19.48110 07 38 22.06 +35 32 05.5 20.7 R 926 – Tenagra II Observatory, Nogales MPS 736261
2016 10 19.49190 07 38 22.40 +35 32 07.4 20.4 R 926 – Tenagra II Observatory, Nogales MPS 736261
2016 10 19.49537 07 38 22.50 +35 32 08.0 20.4 R 926 – Tenagra II Observatory, Nogales MPS 736261
2016 10 19.50618 07 38 22.83 +35 32 09.7 20.6 R 926 – Tenagra II Observatory, Nogales MPS 736261
2016 10 19.50965 07 38 22.92 +35 32 10.2 20.7 R 926 – Tenagra II Observatory, Nogales MPS 736261
2016 11 26.45084 07 12 33.23 +37 45 49.5 20.4 V G96 – Mt. Lemmon Survey MPS 747536
2016 11 26.45525 07 12 32.64 +37 45 49.6 20.8 V G96 – Mt. Lemmon Survey MPS 747536
2016 11 26.45965 07 12 32.12 +37 45 50.4 20.7 V G96 – Mt. Lemmon Survey MPS 747536
2016 11 26.46406 07 12 31.68 +37 45 51.2 20.4 V G96 – Mt. Lemmon Survey MPS 747536
2016 12 10.42896 06 42 11.43 +37 48 00.0 20.6 V G96 – Mt. Lemmon Survey MPS 752392
2016 12 10.43333 06 42 10.77 +37 48 01.1 20.0 V G96 – Mt. Lemmon Survey MPS 752392
2016 12 10.43767 06 42 10.12 +37 47 58.8 20.5 V G96 – Mt. Lemmon Survey MPS 752392
2016 12 10.44205 06 42 09.46 +37 47 57.9 20.3 V G96 – Mt. Lemmon Survey MPS 752392